�������l�o���
Date,Time,MP-1(��Sv/h),MP-2(��Sv/h),MP-3(��Sv/h),MP-4(��Sv/h),MP-5(��Sv/h),MP-6(��Sv/h),MP-7(��Sv/h),MP-8(��Sv/h),����,����(m/s),���J
2019/10/24,00:00,0.706,1.000,0.662,1.226,0.858,0.407,0.707,0.671,��,3.5,��
2019/10/24,00:10,0.704,0.999,0.665,1.225,0.860,0.408,0.707,0.672,��,2.6,��
2019/10/24,00:20,0.707,0.997,0.664,1.226,0.859,0.408,0.708,0.672,��,2.7,��
2019/10/24,00:30,0.705,1.000,0.665,1.227,0.858,0.407,0.707,0.671,��,2.2,��
2019/10/24,00:40,0.706,0.999,0.664,1.226,0.858,0.407,0.708,0.672,��,3.0,��
2019/10/24,00:50,0.706,0.995,0.663,1.224,0.859,0.408,0.707,0.672,��,2.8,��
2019/10/24,01:00,0.705,1.000,0.662,1.227,0.859,0.408,0.707,0.672,��,2.4,��
2019/10/24,01:10,0.705,0.997,0.661,1.228,0.859,0.407,0.707,0.671,��쐼,1.9,��
2019/10/24,01:20,0.706,1.000,0.664,1.227,0.859,0.407,0.708,0.673,��,2.6,��
2019/10/24,01:30,0.706,0.999,0.663,1.228,0.862,0.408,0.708,0.672,��,2.1,��
2019/10/24,01:40,0.707,0.997,0.664,1.225,0.860,0.407,0.709,0.672,��,1.6,��
2019/10/24,01:50,0.706,0.999,0.662,1.225,0.859,0.407,0.708,0.674,��,2.3,��
2019/10/24,02:00,0.706,1.001,0.664,1.228,0.862,0.408,0.709,0.670,��쓌,2.4,��
2019/10/24,02:10,0.705,1.000,0.661,1.227,0.861,0.408,0.708,0.671,��쓌,2.0,��
2019/10/24,02:20,0.704,1.000,0.662,1.227,0.860,0.407,0.708,0.670,��쓌,1.2,��
2019/10/24,02:30,0.705,0.999,0.663,1.228,0.861,0.408,0.708,0.673,��쓌,1.6,��
2019/10/24,02:40,0.706,0.998,0.663,1.224,0.861,0.406,0.708,0.672,��,1.9,��
2019/10/24,02:50,0.705,0.998,0.663,1.227,0.858,0.406,0.706,0.672,��,1.9,��
2019/10/24,03:00,0.704,0.998,0.662,1.227,0.861,0.406,0.708,0.672,��,1.8,��
2019/10/24,03:10,0.705,0.999,0.665,1.225,0.859,0.406,0.708,0.672,��,1.2,��
2019/10/24,03:20,0.705,0.997,0.662,1.224,0.860,0.408,0.708,0.670,��,0.8,��
2019/10/24,03:30,0.705,0.997,0.662,1.228,0.859,0.407,0.707,0.671,��쓌,1.1,��
2019/10/24,03:40,0.705,1.000,0.663,1.225,0.861,0.407,0.708,0.672,��,1.8,��
2019/10/24,03:50,0.704,0.997,0.663,1.226,0.861,0.406,0.705,0.672,��,1.9,��
2019/10/24,04:00,0.704,0.998,0.662,1.227,0.860,0.407,0.708,0.672,��,1.0,��
2019/10/24,04:10,0.703,0.999,0.662,1.226,0.860,0.405,0.707,0.670,��쓌,0.5,��
2019/10/24,04:20,0.704,0.997,0.664,1.225,0.860,0.407,0.709,0.671,�쓌,0.6,��
2019/10/24,04:30,0.704,0.998,0.663,1.227,0.861,0.408,0.709,0.671,�쓌,0.7,��
2019/10/24,04:40,0.704,0.997,0.662,1.226,0.860,0.406,0.709,0.673,�쓌,0.6,��
2019/10/24,04:50,0.705,0.999,0.662,1.226,0.859,0.406,0.710,0.672,��쓌,1.6,��
2019/10/24,05:00,0.704,0.997,0.663,1.225,0.859,0.407,0.708,0.672,��,2.3,��
2019/10/24,05:10,0.704,0.998,0.664,1.227,0.861,0.406,0.708,0.672,��,2.4,��
2019/10/24,05:20,0.705,0.999,0.663,1.228,0.860,0.405,0.708,0.672,��,2.7,��
2019/10/24,05:30,0.704,0.998,0.663,1.227,0.861,0.405,0.707,0.673,��쐼,2.1,��
2019/10/24,05:40,0.701,0.998,0.663,1.227,0.860,0.407,0.707,0.671,��,2.8,��
2019/10/24,05:50,0.707,0.998,0.663,1.226,0.859,0.407,0.707,0.672,��,2.7,��
2019/10/24,06:00,0.706,1.000,0.663,1.228,0.861,0.405,0.708,0.672,��,2.3,��
2019/10/24,06:10,0.705,1.000,0.664,1.227,0.862,0.406,0.708,0.673,��,1.9,��
2019/10/24,06:20,0.703,0.998,0.663,1.227,0.861,0.406,0.707,0.671,��,1.5,��
2019/10/24,06:30,0.705,1.000,0.659,1.226,0.862,0.406,0.710,0.671,��,1.0,��
2019/10/24,06:40,0.705,0.999,0.661,1.227,0.861,0.406,0.706,0.673,�쓌,1.0,��
2019/10/24,06:50,0.704,0.999,0.662,1.227,0.860,0.409,0.707,0.671,�쓌,1.0,��
2019/10/24,07:00,0.706,0.999,0.662,1.225,0.860,0.406,0.707,0.672,��쓌,1.0,��
2019/10/24,07:10,0.706,1.000,0.664,1.228,0.861,0.406,0.710,0.672,��,1.2,��
2019/10/24,07:20,0.706,1.001,0.664,1.226,0.862,0.408,0.706,0.673,��쓌,1.3,��
2019/10/24,07:30,0.706,0.997,0.662,1.229,0.862,0.408,0.707,0.674,��,0.8,��
2019/10/24,07:40,0.705,0.998,0.662,1.229,0.862,0.407,0.707,0.673,�쓌,1.0,��
2019/10/24,07:50,0.706,1.000,0.664,1.226,0.861,0.406,0.707,0.672,���쓌,1.1,��
2019/10/24,08:00,0.708,0.998,0.662,1.228,0.861,0.406,0.707,0.672,-,CALM,��
2019/10/24,08:10,0.705,1.001,0.662,1.229,0.861,0.405,0.704,0.674,��쓌,0.9,��
2019/10/24,08:20,0.705,0.998,0.663,1.228,0.861,0.406,0.706,0.672,�쓌,0.9,��
2019/10/24,08:30,0.706,0.996,0.661,1.228,0.860,0.405,0.706,0.671,���쓌,1.5,��
2019/10/24,08:40,0.705,0.997,0.664,1.227,0.862,0.405,0.707,0.673,���쓌,1.0,��
2019/10/24,08:50,0.704,0.995,0.658,1.227,0.861,0.404,0.706,0.673,���쓌,0.9,��
2019/10/24,09:00,0.705,0.995,0.657,1.228,0.862,0.404,0.706,0.671,��,1.5,��
2019/10/24,09:10,0.706,0.999,0.658,1.225,0.861,0.405,0.706,0.672,���k��,1.1,��
2019/10/24,09:20,0.706,0.997,0.659,1.230,0.860,0.406,0.706,0.672,���k��,1.0,��
2019/10/24,09:30,0.705,0.994,0.658,1.229,0.862,0.405,0.706,0.672,�k�k��,1.6,��
2019/10/24,09:40,0.705,0.995,0.658,1.227,0.861,0.406,0.707,0.672,�k��,1.6,��
2019/10/24,09:50,0.705,0.992,0.661,1.227,0.860,0.407,0.704,0.670,���k��,1.7,��
2019/10/24,10:00,0.706,0.994,0.660,1.230,0.862,0.406,0.706,0.672,���k��,1.1,��
2019/10/24,10:10,0.704,0.996,0.663,1.229,0.862,0.407,0.706,0.671,�k�k��,1.0,��
2019/10/24,10:20,0.703,0.993,0.661,1.229,0.861,0.406,0.705,0.671,���k��,0.6,��
2019/10/24,10:30,0.704,0.995,0.662,1.227,0.860,0.405,0.707,0.671,���k��,1.6,��
2019/10/24,10:40,0.705,0.996,0.661,1.231,0.860,0.405,0.707,0.672,�k��,1.7,��
2019/10/24,10:50,0.704,0.994,0.660,1.227,0.860,0.405,0.708,0.672,��,2.5,��
2019/10/24,11:00,0.702,0.995,0.661,1.227,0.861,0.404,0.706,0.673,���k��,1.7,��
2019/10/24,11:10,0.704,0.991,0.660,1.229,0.860,0.405,0.707,0.671,�k��,1.4,��
2019/10/24,11:20,0.703,0.993,0.661,1.230,0.861,0.405,0.707,0.671,��,2.7,��
2019/10/24,11:30,0.704,0.996,0.660,1.231,0.862,0.405,0.707,0.670,��,4.6,��
2019/10/24,11:40,0.704,0.994,0.659,1.230,0.860,0.405,0.706,0.670,���쓌,2.3,��
2019/10/24,11:50,0.704,0.996,0.659,1.229,0.861,0.404,0.707,0.670,���쓌,1.9,��
2019/10/24,12:00,0.704,0.994,0.660,1.230,0.860,0.406,0.708,0.670,��,1.7,��
2019/10/24,12:10,0.706,0.997,0.661,1.228,0.861,0.404,0.707,0.670,���k��,1.9,��
2019/10/24,12:20,0.703,0.998,0.661,1.231,0.861,0.406,0.709,0.670,���k��,2.5,��
2019/10/24,12:30,0.706,0.999,0.663,1.230,0.862,0.406,0.708,0.670,��,2.5,��
2019/10/24,12:40,0.706,0.999,0.664,1.231,0.861,0.405,0.709,0.670,�k��,1.4,��
2019/10/24,12:50,0.704,1.000,0.664,1.230,0.861,0.405,0.709,0.671,�k��,1.9,��
2019/10/24,13:00,0.705,0.999,0.663,1.232,0.861,0.406,0.709,0.672,���k��,2.3,��
2019/10/24,13:10,0.707,0.998,0.663,1.230,0.862,0.406,0.709,0.672,���k��,3.1,��
2019/10/24,13:20,0.706,0.997,0.663,1.233,0.862,0.407,0.709,0.672,���k��,3.5,��
2019/10/24,13:30,0.704,0.994,0.663,1.229,0.861,0.406,0.708,0.671,�k��,2.1,��
2019/10/24,13:40,0.706,0.997,0.664,1.230,0.863,0.406,0.708,0.670,�k��,2.2,��
2019/10/24,13:50,0.705,0.994,0.661,1.229,0.862,0.406,0.708,0.671,�k��,3.3,��
2019/10/24,14:00,0.707,0.997,0.660,1.230,0.863,0.406,0.708,0.670,���k��,3.9,��
2019/10/24,14:10,0.705,0.995,0.661,1.231,0.863,0.406,0.709,0.671,���k��,4.7,��
2019/10/24,14:20,0.706,0.996,0.663,1.233,0.864,0.406,0.708,0.670,���k��,4.1,��
2019/10/24,14:30,0.706,0.995,0.661,1.233,0.863,0.406,0.711,0.670,�k��,4.0,��
2019/10/24,14:40,0.705,0.996,0.660,1.232,0.860,0.406,0.708,0.671,���k��,4.1,��
2019/10/24,14:50,0.705,0.997,0.661,1.231,0.864,0.406,0.709,0.670,���k��,4.2,��
2019/10/24,15:00,0.707,0.999,0.661,1.231,0.864,0.405,0.710,0.672,�k��,3.8,��
2019/10/24,15:10,0.706,0.998,0.660,1.233,0.863,0.409,0.710,0.670,�k��,3.2,��
2019/10/24,15:20,0.707,1.001,0.661,1.233,0.863,0.406,0.708,0.671,���k��,3.3,��
2019/10/24,15:30,0.707,1.002,0.659,1.233,0.862,0.406,0.709,0.672,���k��,3.0,��
2019/10/24,15:40,0.708,1.003,0.662,1.232,0.862,0.408,0.711,0.672,�k��,2.4,��
2019/10/24,15:50,0.707,1.003,0.663,1.233,0.864,0.409,0.709,0.672,���k��,3.2,��
2019/10/24,16:00,0.707,1.001,0.664,1.231,0.864,0.407,0.709,0.671,���k��,3.0,��
2019/10/24,16:10,0.706,1.000,0.666,1.232,0.866,0.409,0.708,0.673,���k��,2.5,��
2019/10/24,16:20,0.707,1.004,0.664,1.232,0.863,0.409,0.710,0.673,���k��,2.5,��
2019/10/24,16:30,0.706,1.007,0.664,1.232,0.862,0.408,0.709,0.673,���k��,2.5,��
2019/10/24,16:40,0.707,1.006,0.665,1.230,0.865,0.409,0.709,0.675,���k��,2.7,��
2019/10/24,16:50,0.706,1.009,0.666,1.233,0.866,0.409,0.709,0.675,���k��,4.3,��
2019/10/24,17:00,0.708,1.008,0.666,1.233,0.866,0.407,0.709,0.673,���k��,3.0,��
2019/10/24,17:10,0.710,1.009,0.665,1.232,0.864,0.410,0.708,0.673,��,2.9,��
2019/10/24,17:20,0.709,1.006,0.666,1.230,0.865,0.409,0.708,0.673,���k��,2.6,��
2019/10/24,17:30,0.710,1.008,0.666,1.232,0.865,0.410,0.707,0.674,��,2.8,��
2019/10/24,17:40,0.708,1.008,0.665,1.233,0.864,0.410,0.707,0.675,��,3.8,��
2019/10/24,17:50,0.710,1.009,0.665,1.234,0.867,0.407,0.708,0.674,���k��,3.8,��
2019/10/24,18:00,0.712,1.009,0.667,1.232,0.865,0.408,0.708,0.675,���k��,2.4,��
2019/10/24,18:10,0.711,1.007,0.664,1.234,0.867,0.408,0.709,0.674,���k��,2.0,��
2019/10/24,18:20,0.711,1.009,0.665,1.234,0.866,0.410,0.710,0.674,���k��,3.5,��
2019/10/24,18:30,0.710,1.004,0.665,1.232,0.868,0.409,0.709,0.673,���k��,3.1,��
2019/10/24,18:40,0.710,1.008,0.665,1.233,0.868,0.411,0.710,0.675,���k��,3.3,��
2019/10/24,18:50,0.712,1.009,0.665,1.233,0.867,0.410,0.708,0.675,���k��,5.0,��
2019/10/24,19:00,0.712,1.008,0.666,1.234,0.867,0.408,0.708,0.675,���k��,3.0,��
2019/10/24,19:10,0.712,1.009,0.665,1.234,0.867,0.409,0.709,0.675,���k��,4.9,��
2019/10/24,19:20,0.710,1.008,0.664,1.234,0.865,0.410,0.709,0.674,���k��,3.8,��
2019/10/24,19:30,0.712,1.009,0.666,1.232,0.866,0.410,0.711,0.674,���k��,3.9,��
2019/10/24,19:40,0.712,1.010,0.665,1.233,0.865,0.409,0.710,0.677,���k��,5.3,��
2019/10/24,19:50,0.712,1.010,0.665,1.234,0.864,0.409,0.710,0.674,���k��,6.7,��
2019/10/24,20:00,0.711,1.007,0.665,1.232,0.865,0.409,0.709,0.675,�k��,4.2,��
2019/10/24,20:10,0.711,1.008,0.665,1.233,0.863,0.410,0.709,0.677,���k��,6.1,��
2019/10/24,20:20,0.713,1.010,0.666,1.235,0.866,0.409,0.708,0.675,���k��,5.5,��
2019/10/24,20:30,0.712,1.009,0.666,1.232,0.865,0.409,0.708,0.675,�k��,6.3,��
2019/10/24,20:40,0.710,1.008,0.666,1.234,0.867,0.406,0.709,0.676,���k��,6.1,��
2019/10/24,20:50,0.711,1.010,0.666,1.232,0.865,0.410,0.710,0.676,���k��,4.6,��
2019/10/24,21:00,0.710,1.009,0.667,1.234,0.867,0.410,0.711,0.674,�k��,5.2,��
2019/10/24,21:10,0.708,1.010,0.667,1.234,0.866,0.408,0.710,0.675,���k��,6.0,��
2019/10/24,21:20,0.707,1.008,0.664,1.232,0.864,0.410,0.710,0.675,���k��,6.7,��
2019/10/24,21:30,0.710,1.007,0.666,1.239,0.867,0.410,0.709,0.674,�k��,6.0,��
2019/10/24,21:40,0.710,1.010,0.667,1.231,0.865,0.407,0.710,0.676,�k��,3.3,��
2019/10/24,21:50,0.710,1.007,0.666,1.235,0.864,0.409,0.708,0.675,�k��,6.1,��
2019/10/24,22:00,0.709,1.006,0.667,1.234,0.865,0.408,0.709,0.675,���k��,6.7,��
2019/10/24,22:10,0.711,1.009,0.665,1.234,0.864,0.408,0.708,0.677,���k��,6.4,��
2019/10/24,22:20,0.710,1.009,0.667,1.233,0.865,0.408,0.710,0.675,�k��,7.1,��
2019/10/24,22:30,0.709,1.007,0.667,1.232,0.865,0.408,0.709,0.675,�k��,6.0,��
2019/10/24,22:40,0.708,1.010,0.667,1.235,0.867,0.410,0.709,0.675,���k��,6.9,��
2019/10/24,22:50,0.709,1.010,0.666,1.233,0.865,0.408,0.710,0.676,���k��,8.2,��
2019/10/24,23:00,0.710,1.009,0.666,1.234,0.867,0.409,0.709,0.676,���k��,7.1,��
2019/10/24,23:10,0.710,1.009,0.668,1.236,0.867,0.409,0.710,0.675,���k��,7.2,��
2019/10/24,23:20,0.708,1.009,0.667,1.235,0.865,0.409,0.709,0.676,���k��,7.7,��
2019/10/24,23:30,0.708,1.008,0.668,1.236,0.865,0.409,0.710,0.675,���k��,8.8,��
2019/10/24,23:40,0.709,1.005,0.666,1.239,0.864,0.408,0.710,0.676,�k��,6.9,��
2019/10/24,23:50,0.711,1.010,0.667,1.235,0.868,0.410,0.709,0.673,���k��,8.0,��
